STELLA

Last updated on Tue Oct 14 2025 00:03:37 GMT+0000 (Coordinated Universal Time)

1 22824U 93061B 25286.61576962 -.00000027 00000+0 76953-5 0 9996 2 22824 98.8100 344.5292 0005530 227.9301 265.5664 14.27460753669590
UTC large
Height (km)
Speed (km/s)
/
Latitude / Longitude
Inclination (degrees)
Orbital Period (minutes)
Azimuth
Elevation
Range (km)
Doppler Factor

Next 0 passes for location: London (51.5072 / 0.1276)

Sorry there are no passes over London.